Terminal Aerodrome Forecast
Issued by NWS Lake Charles, LA

Home | Current Version | Previous Version | Text Only | Print | Product List | Glossary On
Versions: 1 2 3 4 5 6 7 8 9 10 11 12 13 14 15 16 17 18
000
FTUS44 KLCH 191700
TAFAEX
TAF
KAEX 191723Z 1918/2018 VRB05KT P6SM SCT250
      TEMPO 2009/2013 5SM BR=

USA.gov is the U.S. government's official web portal to all federal, state and local government web resources and services.